Flag for Germany Weather past 2 weeks in Frechen, North Rhine-Westphalia, Germany

Now
30 °F

Partly cloudy.


Feels Like: 21 °F
Forecast: 18 / 36 °F
Wind: 12 mph from Northeast

Location: Noervenich

Current Time: Dec 28, 2014 at 2:09:08 AM

Latest Report: Dec 28, 2014 at 1:20 AM


Visibility: N/A

Pressure: 29.71 "Hg

Humidity: 69%

Dew point: 21 °F

Location of FrechenLocation

Historic Weather in Frechen — Graph

°F

Frechen temperature yesterday

Maximum temperature yesterday: 37 °F (at 2:20 AM)
Minimum temperature yesterday: 32 °F (at 5:20 PM)
Average temperature yesterday: 34 °F

Past Weeks' High & Low Weather Summary

 TemperatureHumidityPressure
High55 °F (Dec 18, 3:20 PM)100% (Dec 13, 2:20 AM)30.42 "Hg (Dec 13, 2:20 AM)
Low30 °F (Dec 28, 12:20 AM)67% (Dec 23, 11:20 PM)29.36 "Hg (Dec 27, 1:20 PM)
Average43 °F85%30.00 "Hg
* Reported Dec 13 12:20 AM — Dec 28 12:20 AM, Frechen, Weather by CustomWeather, © 2014

Note: Actual official high and low records may vary slightly from our data, if they occured in-between our weather recording intervals... More about our weather records

Advertising

Frechen weather history for previous 24 hours

 ConditionsComfort  
Time TempWeatherWind HumidityBarometerVisibility
12:20 AM
Dec 28
30 °FPartly cloudy.10 mph75%29.71 "HgN/A
11:20 PM
Dec 27
32 °FLight snow. Mostly cloudy.10 mph75%29.65 "Hg5 mi
10:20 PM32 °FLight snow. Mostly cloudy.10 mph80%29.62 "Hg4 mi
9:20 PM32 °FLight snow. Ice fog.8 mph87%29.59 "Hg3 mi
8:20 PM32 °FLight snow. Ice fog.9 mph93%29.53 "Hg2 mi
7:20 PM32 °FLight snow. Ice fog.9 mph87%29.50 "Hg3 mi
6:20 PM32 °FSnow. Ice fog.9 mph93%29.47 "Hg2 mi
5:20 PM32 °FSnow. Ice fog.8 mph100%29.42 "Hg2 mi
4:20 PM34 °FSnow. Fog.9 mph93%29.39 "Hg2 mi
3:20 PM34 °FLight rain. Broken clouds.9 mph93%29.39 "Hg5 mi
2:20 PM36 °FLight rain. Partly sunny.8 mph87%29.36 "Hg4 mi
1:20 PM36 °FPartly sunny.10 mph87%29.36 "HgN/A
12:20 PM36 °FPartly sunny.9 mph87%29.39 "HgN/A
11:20 AM34 °FLight snow. Partly sunny.10 mph93%29.39 "Hg4 mi
10:20 AM34 °FLight snow. Partly sunny.10 mph93%29.39 "HgN/A
9:20 AM34 °FLight snow. Mostly cloudy.10 mph93%29.42 "Hg4 mi
8:20 AM34 °FLight snow. Fog.10 mph93%29.45 "Hg3 mi
8:00 AM34 °FLight snow. Fog.13 mph93%29.45 "Hg2 mi
7:20 AM34 °FLight snow. Overcast.12 mph93%29.47 "Hg4 mi
6:20 AM34 °FLight snow. Overcast.14 mph93%29.53 "Hg4 mi
5:20 AM36 °FLight snow. Overcast.14 mph87%29.62 "HgN/A
4:20 AM36 °FLight rain. Overcast.9 mph87%29.71 "HgN/A
3:20 AM37 °FPassing clouds.8 mph81%29.80 "HgN/A
2:20 AM37 °FPassing clouds.8 mph81%29.89 "HgN/A
Weather by CustomWeather, © 2014

See weather overviewHow to use our weather pages